Location: *
(48.8780°N, 19.2358°E)
Time: 23:39:03
(UTC+00:00)

YAOGAN 6 - Pass Details

Date: 18 October 2019
Orbit: 465 x 506 km, 97.0° (Epoch: 17 November)

Event Time Altitude Azimuth Distance (km) Brightness Sun altitude
Rises 17:03:56 0° 173° (S) 2,585 6.2 -13.1°
Reaches altitude 10° 17:06:01 10° 176° (S) 1,701 5.3 -13.5°
Maximum altitude 17:09:40 66° 259° (W) 546 3.0 -14.1°
Drops below altitude 10° 17:13:18 10° 342° (NNW) 1,696 5.6 -14.7°
Sets 17:15:24 0° 346° (NNW) 2,576 6.5 -15.0°
